Theta_e
326 328 329 330 330 331 331 330 330 330 332 333 333 334 335 335 334 333 334 334 334 333 333 332 330 330 330 329 328 328 330 330 331 331 334 334 335 335 336 334 334 335 336 334 332 335 331 330 329 330 330 330 328 327 327 326 327 327 326 327 327 325 326 328 327 327 323 323 324 323 324 325 326 326 327 327 327 328 330 331 332 332 332 332 333
326 327 328 329 330 330 331 330 330 329 330 332 332 333 334 334 334 334 334 333 333 333 333 333 332 331 330 329 329 328 329 329 329 331 332 333 333 333 334 335 333 332 332 331 330 330 329 327 327 326 327 327 327 326 326 327 324 324 325 323 325 324 324 326 324 326 322 320 318 319 319 322 322 324 326 326 327 327 328 329 330 330 330 331 332
325 326 327 328 329 329 329 329 328 329 330 331 332 333 333 333 334 333 332 332 332 333 333 332 330 331 330 329 330 329 330 331 331 332 333 331 332 332 331 329 329 328 328 329 327 327 326 325 325 325 325 326 323 322 322 322 322 322 322 321 320 322 323 325 322 324 320 320 316 313 312 317 319 318 323 324 326 326 326 327 329 328 326 327 331
323 324 325 327 328 328 328 328 328 329 330 331 332 332 332 332 332 332 331 331 332 333 332 331 332 331 331 331 330 328 329 333 332 331 332 330 328 328 327 327 326 326 326 325 324 324 324 323 323 322 322 323 321 320 319 319 320 320 321 321 320 318 318 319 321 321 320 319 313 313 314 317 314 314 317 321 322 324 324 325 326 323 322 323 328
323 324 325 326 326 327 327 328 329 329 331 332 332 332 332 332 331 331 330 330 331 333 332 333 332 331 331 331 331 330 330 330 329 328 328 328 326 325 324 324 324 323 323 324 324 322 322 322 321 320 320 320 320 318 318 318 319 319 320 319 318 315 315 315 317 319 318 321 319 314 312 314 314 315 317 315 318 320 321 322 325 321 320 321 325
324 324 325 326 327 327 328 329 329 330 331 332 333 332 332 331 331 330 330 330 331 331 332 332 330 329 328 326 325 325 326 327 325 324 324 323 322 323 323 323 322 321 321 321 322 322 319 319 319 319 318 319 318 317 317 317 317 317 317 316 316 316 314 313 312 316 318 317 318 320 320 314 312 315 314 308 315 318 319 320 320 318 318 319 322
326 326 327 326 327 327 327 328 329 329 331 333 333 332 332 331 330 330 330 330 330 331 331 330 328 328 327 327 326 326 326 328 328 326 325 324 323 321 321 321 321 320 319 319 320 320 318 318 318 318 318 317 319 316 315 315 316 316 316 315 314 315 314 310 310 311 312 314 315 315 317 318 318 315 309 311 308 313 315 315 314 315 315 318 316
325 325 327 327 327 327 326 328 328 329 331 332 332 332 331 330 331 331 330 330 330 331 330 329 327 327 326 325 326 326 328 327 326 325 325 323 321 320 319 319 320 320 319 318 319 320 318 316 316 316 316 317 317 314 314 315 315 315 315 313 314 314 313 310 309 310 308 309 313 312 312 314 314 315 314 312 310 307 308 311 313 313 313 314 315
326 325 326 327 327 327 327 327 329 330 331 331 331 331 330 331 331 331 330 330 330 330 329 328 328 327 326 326 326 328 329 327 327 326 324 323 320 319 318 318 318 318 318 318 317 317 319 315 314 314 315 315 317 314 314 314 313 312 311 311 311 312 313 312 309 308 308 307 308 309 309 310 310 311 311 311 308 306 305 306 307 310 311 311 313
326 327 327 328 328 328 328 328 329 330 331 332 332 331 331 331 330 329 328 329 330 329 328 327 328 327 326 327 328 328 327 325 324 323 321 320 318 317 317 316 316 316 316 316 316 316 315 315 314 314 314 316 316 313 313 313 312 311 311 311 310 310 310 311 310 308 309 308 309 309 308 308 308 308 308 307 307 308 304 304 306 306 304 307 311
325 326 327 328 328 328 327 327 329 330 331 331 330 331 331 330 329 328 328 329 328 327 327 326 327 327 327 329 328 326 325 323 321 320 319 318 316 315 315 315 315 315 315 314 314 314 314 316 313 314 314 317 314 312 312 311 311 310 310 309 309 309 309 309 310 309 309 309 308 308 308 308 307 306 305 305 304 303 303 304 304 304 303 303 306
326 326 326 326 326 327 327 327 328 329 330 330 330 330 330 329 328 328 329 329 328 327 327 327 327 327 328 329 327 326 324 322 320 318 318 316 315 314 314 313 313 313 313 312 312 313 313 312 313 312 313 311 311 311 311 311 310 309 309 309 308 309 310 311 308 308 308 307 306 306 306 306 305 305 305 305 302 301 302 300 300 301 301 302 304
325 325 325 325 325 325 326 327 327 327 328 329 329 329 328 328 328 328 328 328 327 326 325 325 325 327 328 327 326 325 323 322 320 318 318 316 314 313 312 311 311 311 311 311 310 311 312 311 311 310 311 312 311 310 310 309 308 307 308 308 308 307 308 308 307 306 306 305 304 305 305 304 303 305 304 302 301 300 299 296 298 299 297 298 300
324 324 324 325 325 326 327 326 327 327 328 328 328 328 328 328 328 327 326 326 325 323 323 323 323 323 323 323 322 322 320 319 318 317 316 315 314 312 312 311 310 310 310 310 310 312 311 311 311 310 310 310 311 310 309 309 308 308 307 307 307 307 307 306 306 306 305 304 304 302 302 303 302 303 302 301 299 298 296 296 296 297 297 297 298
324 324 324 325 326 327 326 327 327 327 328 328 328 328 328 327 325 324 323 323 323 323 322 321 320 320 319 319 319 319 318 317 316 316 315 314 313 312 312 311 310 309 310 311 312 310 311 311 310 309 309 308 308 307 309 307 307 307 307 307 308 307 306 306 305 304 304 302 301 301 302 301 301 301 301 300 300 299 297 297 296 293 294 296 296
324 324 324 325 326 327 327 327 327 327 327 327 327 327 325 324 323 323 322 321 322 321 320 320 319 319 318 317 317 318 318 317 316 315 314 314 313 312 311 311 310 310 311 310 310 309 308 308 308 308 308 308 308 307 307 307 307 306 305 305 305 308 304 303 303 303 301 301 300 300 300 299 300 300 301 300 300 300 299 299 298 296 293 291 294
324 324 324 325 326 327 327 327 327 327 327 327 326 325 323 322 321 320 319 319 319 319 318 317 317 317 316 316 316 315 315 314 314 313 313 313 313 312 311 311 311 311 311 310 308 308 307 306 306 306 306 306 307 307 307 306 305 304 304 303 302 303 304 302 302 301 301 301 300 300 299 300 299 300 300 300 300 299 299 299 299 296 296 293 291
324 325 325 326 326 326 327 327 327 327 326 324 323 323 322 321 319 318 317 316 316 316 315 315 315 314 314 315 315 314 314 314 313 312 313 312 312 311 311 311 310 312 310 308 305 305 305 308 304 304 305 305 305 306 306 305 304 303 303 302 302 302 301 302 302 301 300 301 300 299 299 299 299 298 298 299 299 299 298 298 298 298 298 294 293
323 324 324 325 325 325 326 326 326 325 324 323 322 321 319 318 318 317 315 315 314 315 315 314 315 315 314 314 313 313 313 313 313 313 312 311 310 310 309 308 307 307 306 303 303 303 303 303 303 303 303 303 304 304 305 304 303 302 302 301 301 301 300 300 301 301 300 300 298 298 298 298 298 297 298 298 299 299 298 298 298 298 297 297 295
323 323 324 325 325 325 325 325 324 322 322 321 320 319 317 317 316 315 314 314 314 314 314 313 313 314 313 313 313 314 314 313 312 311 310 310 309 309 307 306 304 304 302 302 302 302 302 301 302 302 302 302 302 302 303 303 302 301 301 301 300 300 300 299 299 300 300 299 298 297 297 297 297 297 297 297 296 297 298 298 298 298 298 297 297
323 323 324 324 324 324 325 324 323 322 321 319 318 317 316 316 315 314 313 312 312 312 312 312 312 312 312 311 311 311 311 311 310 310 310 309 309 308 306 305 304 302 302 301 301 300 301 301 301 302 300 300 300 301 301 301 302 301 301 300 300 299 298 298 299 298 299 298 298 297 297 297 297 296 296 296 296 296 297 298 298 298 297 297 297
323 323 324 324 323 323 324 323 322 320 318 317 316 315 315 314 314 313 313 312 312 312 312 311 311 310 310 310 310 310 310 310 309 309 309 308 306 304 303 302 301 301 301 300 300 300 300 300 299 299 299 299 300 300 300 301 300 300 299 300 299 298 297 297 297 297 297 298 297 296 296 296 296 295 295 295 295 296 296 296 296 297 296 296 297
323 323 323 323 323 323 322 320 319 318 317 316 315 314 313 313 312 312 312 311 311 311 311 310 310 309 309 310 310 309 309 309 308 308 307 306 305 303 303 301 300 300 301 300 299 299 299 299 298 298 298 298 298 299 299 300 299 299 298 298 298 297 297 297 296 296 297 297 296 296 295 295 296 294 294 294 295 295 295 295 295 295 295 295 297
323 323 323 323 322 321 320 319 317 316 315 315 314 313 313 312 312 311 310 310 310 310 310 309 309 309 309 309 309 309 308 308 306 306 305 304 303 302 302 300 300 300 299 299 299 298 298 297 297 296 296 296 297 298 298 299 299 298 298 297 297 297 297 297 297 296 296 296 295 295 295 294 294 293 293 293 293 294 294 295 294 295 295 295 296
322 322 321 321 320 319 319 318 316 315 315 314 313 312 312 311 311 310 310 310 310 310 309 309 309 308 308 308 308 308 307 307 306 305 303 303 303 302 302 300 299 299 299 298 299 298 297 297 296 295 295 295 295 296 297 298 298 298 298 297 297 296 296 296 296 297 300 296 296 295 295 294 293 292 292 292 293 293 294 295 294 295 295 296 296
321 320 320 318 319 319 317 316 315 314 313 313 312 312 311 310 309 310 309 309 309 309 308 308 308 308 307 307 307 306 306 305 305 304 303 302 302 301 300 300 299 298 298 298 297 297 298 296 296 295 295 294 294 295 295 296 297 298 297 297 297 297 296 296 296 296 296 296 296 295 295 294 293 292 292 292 293 292 294 294 294 294 295 295 294
320 319 318 318 317 317 316 315 314 313 313 312 312 311 310 309 309 309 309 309 308 308 308 308 307 307 306 306 306 305 305 305 304 303 303 302 301 301 300 299 299 298 297 297 297 296 297 296 295 295 294 294 294 294 294 294 295 296 296 296 296 295 296 296 295 296 296 295 295 295 295 294 293 292 292 292 292 292 294 293 295 294 295 294 293
319 318 317 316 316 315 314 313 313 313 312 312 312 311 309 309 308 308 308 308 308 307 307 307 306 306 305 305 305 305 304 304 303 303 302 302 301 300 300 300 299 297 297 296 296 296 296 296 295 295 295 295 294 293 293 293 293 294 296 296 296 296 295 295 295 295 295 295 295 295 295 295 295 294 293 292 292 292 293 293 293 294 294 294 293
317 317 316 315 314 313 313 312 312 312 311 311 310 310 309 308 308 308 308 307 307 307 306 306 306 305 304 304 304 304 304 304 303 302 302 301 300 300 299 299 298 298 298 296 296 295 295 294 294 294 293 294 294 294 294 292 292 293 294 295 295 295 295 294 294 294 294 294 294 294 295 296 300 302 300 297 296 296 294 292 292 293 294 294 293
316 316 316 314 313 313 312 312 312 311 311 310 309 308 308 307 307 307 307 307 307 306 306 306 305 304 304 304 303 303 302 302 302 301 301 300 299 299 298 297 296 296 296 296 295 295 294 293 293 293 293 293 293 294 296 295 295 295 293 296 296 295 294 294 294 293 293 294 294 293 298 301 301 301 300 297 294 295 296 295 293 292 293 293 293
315 315 314 313 313 313 312 311 311 311 310 309 308 308 308 307 307 307 307 307 307 306 306 305 304 303 303 303 302 302 302 301 301 301 300 300 299 298 297 296 295 295 295 295 293 292 292 292 292 292 292 292 292 294 294 292 292 296 295 295 295 294 293 293 293 292 292 293 293 293 292 297 298 298 298 296 294 294 293 293 294 296 297 294 293
315 314 313 312 312 312 311 311 310 310 310 309 308 308 307 307 307 307 306 306 306 306 305 304 303 303 302 302 302 301 301 301 301 300 300 300 299 298 296 295 295 294 294 293 292 292 292 291 291 291 291 292 292 295 292 293 292 293 298 297 295 295 294 293 292 292 293 292 291 292 292 294 293 297 296 292 293 294 293 293 293 294 294 294 294
314 313 312 312 312 312 312 311 310 310 309 308 308 307 307 307 307 307 306 305 305 305 304 304 303 302 301 301 301 301 301 301 300 300 301 300 299 298 296 295 294 295 293 292 292 291 291 291 291 291 291 291 291 293 292 293 293 293 295 297 295 294 294 293 292 292 292 290 290 292 292 293 292 298 298 291 290 290 294 294 295 295 295 296 292
314 313 313 312 313 312 312 311 310 309 309 309 309 308 308 308 307 307 305 305 304 304 303 303 302 301 301 301 301 301 300 300 300 300 300 300 299 297 297 296 296 295 293 293 292 291 291 292 292 291 291 292 292 293 293 294 294 294 295 296 294 294 294 293 293 292 292 291 290 290 291 291 291 291 292 291 290 290 290 291 291 291 291 294 293
313 313 312 312 312 312 311 309 309 308 308 308 307 308 307 307 306 305 305 304 304 303 303 302 301 301 301 300 300 300 300 300 300 300 299 299 298 298 297 296 294 293 292 291 291 291 291 292 291 292 292 292 292 292 292 293 294 294 294 295 294 295 294 293 292 292 291 292 290 291 290 290 291 291 294 292 290 290 289 290 290 290 291 291 291
314 313 312 311 311 310 309 309 308 307 307 307 306 307 306 305 305 305 304 304 303 303 302 301 300 300 300 300 300 300 300 299 299 299 298 298 298 297 296 296 295 293 293 292 291 291 291 291 292 292 291 290 290 291 292 292 293 293 294 296 294 293 292 293 292 292 291 290 291 292 292 291 291 291 294 291 292 292 289 289 289 289 290 290 291
314 314 312 312 311 310 310 309 307 307 307 306 306 306 305 304 304 304 304 303 302 301 301 301 300 300 300 300 300 300 299 299 298 298 297 297 297 296 296 296 295 294 293 291 291 291 292 292 291 290 289 289 289 291 291 292 292 292 293 292 292 293 291 290 290 291 292 292 292 294 293 291 291 291 293 290 290 293 289 289 288 288 289 289 290
313 313 312 311 311 311 309 308 306 306 307 307 306 305 304 303 303 303 302 302 302 301 301 301 300 300 300 300 300 300 299 299 298 297 297 296 296 296 296 297 295 294 293 293 292 291 290 291 290 289 290 290 288 291 291 292 292 292 293 291 290 291 289 289 290 290 290 290 292 299 300 292 291 291 291 290 290 292 288 288 287 287 288 288 289
312 311 310 311 310 310 309 308 307 306 306 307 306 305 304 303 303 302 302 301 301 301 302 300 300 300 300 300 300 300 299 298 297 296 297 296 296 296 296 295 294 294 293 293 294 291 290 289 290 292 298 291 289 292 292 291 291 292 293 290 290 290 290 288 289 291 290 290 290 294 297 295 293 292 290 290 290 291 288 287 286 286 287 287 288
311 311 312 311 310 309 308 307 306 306 306 306 305 305 304 303 302 302 301 300 301 301 301 301 300 300 300 300 300 299 298 297 297 296 297 296 296 295 294 294 293 293 293 292 293 292 291 290 290 290 292 289 290 289 290 291 291 292 293 292 290 289 289 288 288 291 290 289 289 289 293 292 291 290 290 290 290 290 289 287 287 286 286 286 288
310 310 307 310 309 309 308 307 306 306 306 306 306 305 303 303 302 302 301 301 301 301 301 300 300 299 300 299 299 299 298 298 297 297 297 297 295 294 293 293 293 292 292 291 291 291 291 289 289 289 289 289 291 289 290 291 291 291 291 291 288 288 287 288 287 288 286 287 288 288 288 292 290 290 290 290 290 290 291 290 287 286 286 289 290
309 307 309 309 308 308 307 306 305 306 306 306 305 304 303 302 302 301 301 301 300 299 299 299 299 299 299 299 298 298 299 298 298 297 296 295 295 294 294 293 292 292 292 291 290 290 290 289 288 289 289 289 293 294 289 291 291 291 291 291 290 288 289 288 288 286 287 287 287 287 288 291 290 290 290 290 290 290 290 290 288 288 289 289 289
308 308 309 309 307 307 306 305 305 305 306 305 305 303 302 301 301 301 301 300 299 298 298 298 298 298 298 298 298 298 298 299 298 297 296 295 295 295 294 294 293 292 291 290 290 290 290 289 288 288 287 288 288 291 292 290 291 290 290 290 290 289 291 291 287 287 286 287 286 287 290 293 290 290 290 290 290 290 290 288 289 288 289 289 289
309 309 308 308 307 306 305 304 305 305 305 305 304 302 301 300 300 300 299 299 298 298 298 298 298 298 298 298 298 298 298 297 297 296 296 295 295 295 295 294 294 293 292 291 289 291 290 288 288 287 288 288 288 287 291 291 289 290 290 290 290 290 290 290 290 288 287 286 287 287 290 290 290 290 289 290 290 290 288 289 289 288 289 289 287
307 308 307 307 307 305 304 303 304 304 304 304 304 302 300 299 299 299 299 298 298 297 297 297 297 297 297 298 297 297 297 296 296 296 296 296 295 295 295 294 294 293 292 292 291 291 290 289 288 289 287 288 288 286 286 290 291 290 289 289 289 290 289 290 288 288 288 287 289 289 289 290 290 290 289 290 290 290 289 288 289 288 290 285 286
308 308 307 307 306 305 303 302 303 303 303 303 303 302 299 299 299 299 299 298 297 297 297 297 297 297 297 298 297 296 296 296 296 296 297 296 296 296 295 294 294 293 293 292 292 292 291 290 289 287 287 286 286 284 284 285 290 291 290 290 289 289 291 290 290 288 289 289 289 290 290 290 290 290 289 287 287 288 288 289 289 289 284 284 284
307 307 306 306 305 304 302 302 301 302 302 302 301 301 300 299 299 299 299 298 297 297 297 296 296 296 296 297 296 296 295 295 295 295 296 297 296 295 295 294 293 293 292 291 292 292 291 290 289 287 286 286 284 283 284 283 282 282 284 286 285 287 290 290 289 288 289 288 290 291 289 289 289 289 288 289 288 289 287 286 285 284 284 284 285
307 306 306 306 305 303 302 302 301 301 301 301 300 299 299 299 299 299 298 298 297 296 296 296 296 296 296 296 296 293 295 294 294 295 294 293 293 294 294 294 293 292 290 290 291 291 290 290 288 286 285 284 283 284 283 283 284 284 284 283 284 285 284 283 285 286 286 289 289 289 288 287 286 286 286 285 284 285 285 284 284 283 284 285 287
306 306 305 305 304 303 303 302 301 300 300 300 299 299 299 299 299 299 298 297 296 295 296 295 295 296 295 296 296 295 295 293 291 291 289 288 290 291 291 287 286 286 291 291 290 290 291 290 289 287 286 285 283 282 285 286 283 288 285 285 284 283 283 283 288 289 288 286 285 285 284 284 283 283 284 284 284 283 284 284 284 284 283 283 283
306 305 305 305 304 303 302 301 300 300 300 299 298 298 299 299 299 298 298 297 296 295 295 294 295 295 295 294 294 293 292 291 290 288 288 287 287 289 288 291 288 291 291 291 291 289 290 289 288 287 286 285 284 284 287 288 288 288 288 288 289 289 288 286 288 288 288 282 281 281 281 280 282 282 282 281 283 282 283 282 283 284 283 283 283
305 304 304 304 303 302 302 300 300 300 299 299 298 298 298 298 298 298 298 297 296 295 294 294 294 294 294 294 292 291 290 290 289 288 287 286 286 287 288 289 290 291 290 290 290 290 290 290 290 286 285 288 288 288 288 288 288 288 288 288 288 288 288 288 288 282 281 279 280 279 280 281 281 282 281 281 280 282 280 281 282 282 281 282 282
Wind_Speed
10 10 10 10 9 8 7 5 5 4 5 8 9 9 12 13 13 12 10 10 9 8 8 8 6 5 4 5 5 3 4 3 3 2 3 4 3 4 3 2 2 3 5 6 6 6 6 6 7 6 6 7 7 7 6 7 7 6 4 4 6 6 7 7 9 6 6 7 5 4 6 5 4 2 5 8 7 6 5 5 5 5 6 6 6
11 10 9 8 7 9 8 7 7 10 7 8 10 10 10 12 13 11 9 8 8 8 7 6 5 6 6 5 5 4 4 5 4 3 4 4 4 4 4 3 4 5 5 6 7 7 7 7 7 6 6 6 7 6 7 7 8 7 5 5 4 5 4 7 7 6 5 5 5 6 6 5 3 3 9 10 8 6 6 6 6 5 7 8 7
10 10 9 8 8 9 9 7 5 5 8 9 8 10 10 10 10 10 8 9 7 7 7 6 4 4 5 5 6 5 2 2 4 4 4 5 5 6 6 6 6 7 7 7 8 7 6 6 6 6 7 6 7 8 7 8 7 6 6 5 4 3 3 6 8 7 4 5 2 1 4 7 6 6 5 10 7 6 6 6 6 6 9 8 7
14 12 13 11 8 9 9 8 7 5 5 6 8 10 8 8 9 9 8 7 7 6 6 6 6 6 7 8 4 4 5 5 4 4 5 6 7 6 7 7 8 8 7 7 7 7 7 7 6 7 7 7 7 7 7 7 7 7 6 7 3 6 5 6 7 7 6 6 5 1 3 2 5 3 8 7 2 8 5 7 5 8 10 10 8
14 12 12 13 11 8 8 8 6 6 6 8 8 7 6 8 8 8 7 7 6 7 7 7 9 8 7 7 6 7 6 5 6 6 5 5 6 7 7 7 8 8 7 8 7 7 7 7 7 7 7 7 6 7 7 7 6 6 7 7 8 3 5 4 6 7 9 8 4 3 4 2 3 7 9 5 4 6 3 5 6 10 11 10 7
16 14 14 12 12 11 9 9 9 7 6 7 6 6 7 7 8 7 6 6 7 7 8 7 8 9 8 9 8 7 7 6 7 7 6 6 7 5 7 7 7 8 8 8 8 7 7 7 7 7 7 7 7 6 6 7 8 8 7 6 7 6 4 7 6 6 6 8 8 5 4 2 6 6 4 6 4 5 1 6 6 8 8 9 8
10 11 13 14 13 13 12 11 9 8 6 5 5 7 8 8 7 7 6 6 6 7 7 7 7 7 8 8 8 8 8 5 5 5 7 6 6 8 7 7 7 8 7 7 7 6 7 7 7 7 6 6 6 7 8 7 6 6 5 7 6 6 6 7 6 6 4 6 6 6 5 5 5 6 5 6 10 2 2 6 4 6 8 5 8
12 13 12 12 13 12 13 11 9 8 8 6 7 7 9 8 8 8 5 6 5 6 6 5 8 6 6 6 6 7 7 9 8 6 6 7 8 7 7 6 6 6 7 7 7 7 7 7 6 6 7 6 7 7 7 6 6 6 6 6 6 6 6 6 5 5 6 4 5 6 6 5 6 4 3 4 5 11 9 3 0 7 7 3 7
13 11 12 12 11 11 10 10 9 9 8 8 7 8 7 8 8 7 6 5 5 5 7 5 5 7 7 7 7 5 8 8 8 7 7 7 9 6 6 5 6 7 7 7 7 7 6 6 5 6 7 6 6 7 6 7 7 7 7 7 6 5 5 4 5 5 4 4 4 6 4 5 4 3 5 6 4 6 9 11 14 9 1 3 7
11 12 12 11 12 11 10 10 9 8 7 7 7 7 7 7 8 8 7 5 6 6 6 6 6 6 8 8 10 8 7 7 7 8 7 7 8 6 5 6 6 7 7 7 7 6 5 5 6 6 6 7 7 7 7 7 6 6 5 4 4 4 3 4 5 4 5 4 5 5 6 5 4 5 7 8 5 4 7 11 10 15 16 9 7
12 12 11 11 11 11 11 11 9 8 7 8 8 8 7 8 9 8 6 6 6 5 6 7 6 6 7 9 11 11 9 9 9 8 7 7 8 6 6 6 6 6 6 6 6 5 5 5 6 6 7 7 8 8 6 6 5 5 5 5 5 4 4 5 5 5 6 8 9 8 8 9 8 8 8 7 5 5 8 8 10 10 11 15 8
13 12 11 12 12 11 11 11 10 10 9 8 7 7 7 8 9 8 7 6 6 6 6 6 6 5 6 8 9 9 10 8 10 9 8 9 8 8 6 6 5 6 6 6 6 5 6 6 6 7 8 8 8 6 6 5 5 5 5 5 6 6 6 7 7 9 8 8 9 8 8 8 8 8 7 7 7 7 7 8 8 10 8 5 10
13 12 12 12 12 13 12 11 10 10 10 9 8 7 8 8 9 10 8 6 6 5 6 6 6 5 6 7 7 7 7 8 8 8 7 8 7 8 7 7 5 7 6 6 5 5 5 7 7 7 7 7 7 6 5 5 5 5 5 6 7 8 8 8 8 8 9 8 7 7 7 8 8 7 7 7 6 6 7 7 7 6 8 11 7
13 12 12 11 11 11 12 12 10 9 10 9 9 9 8 8 9 10 8 7 7 7 7 7 6 6 6 7 7 7 7 7 7 8 7 7 7 7 7 6 7 7 6 5 4 5 5 5 6 7 6 7 6 6 5 4 5 5 6 7 8 7 8 8 9 9 9 8 7 7 8 7 7 7 6 7 7 7 7 7 9 7 6 8 8
12 12 12 12 12 12 11 12 10 9 11 10 9 9 8 8 9 11 10 9 9 8 7 8 7 7 6 6 7 6 7 7 7 7 8 8 7 8 6 7 7 6 6 4 4 5 5 6 6 7 7 6 6 5 5 5 5 6 7 8 8 7 8 9 9 10 9 9 9 8 8 8 7 7 6 7 6 6 6 6 8 12 9 6 9
12 12 12 12 12 11 11 11 10 10 12 10 11 10 9 9 10 12 11 9 10 9 8 8 7 7 7 8 7 7 7 7 7 7 7 8 8 8 8 7 6 6 5 6 5 6 6 7 7 7 6 5 4 5 5 6 7 9 9 9 9 7 9 10 8 9 9 10 9 8 7 7 6 6 6 6 6 6 6 6 7 7 9 12 12
12 11 11 13 11 10 10 11 10 11 11 11 11 10 11 11 11 12 11 8 9 9 8 7 8 8 7 7 7 8 8 8 8 9 9 8 8 7 8 6 5 5 6 6 6 6 7 7 7 7 7 6 6 6 7 8 9 9 9 9 8 7 8 8 7 8 8 8 7 7 6 5 6 5 6 6 6 6 6 6 7 7 8 8 10
12 11 11 12 11 12 10 10 11 11 11 11 12 11 10 9 11 12 11 10 7 8 7 7 8 8 7 7 7 7 8 8 8 8 8 9 8 7 7 6 5 5 6 6 7 8 7 8 7 7 7 7 7 7 8 8 9 8 8 7 6 7 8 7 7 8 8 7 7 7 6 6 6 6 6 6 6 7 7 7 7 7 7 7 7
11 12 12 10 11 11 11 12 11 11 11 11 11 11 10 9 8 11 11 8 8 7 7 6 6 6 6 7 8 7 6 6 6 7 8 10 9 7 7 6 7 7 7 8 8 8 7 7 7 7 8 8 8 8 8 8 8 8 7 7 7 7 8 8 7 7 7 6 6 8 7 7 6 7 6 6 8 7 7 6 6 7 6 6 7
11 12 12 11 12 13 13 14 13 13 12 12 12 10 12 10 10 10 9 8 8 8 7 8 6 7 7 6 6 6 6 7 7 9 9 9 8 8 8 8 8 8 8 8 8 7 7 7 7 8 8 8 8 7 7 7 8 7 7 7 7 7 8 8 7 6 6 7 7 8 8 7 7 6 7 8 7 7 6 5 5 4 6 7 7
12 12 12 13 13 12 13 12 11 11 10 10 11 12 11 10 9 9 11 9 8 7 8 7 7 7 8 8 7 7 8 8 9 9 10 9 8 8 8 7 8 8 8 9 8 7 7 7 8 8 8 8 8 8 6 7 8 8 7 7 7 7 8 7 7 8 7 7 8 8 8 8 7 7 6 6 6 5 5 4 4 4 5 6 6
14 14 13 13 13 12 13 12 11 12 11 12 11 11 11 10 9 9 8 7 9 8 8 7 6 7 8 8 8 7 8 8 9 8 9 9 9 8 8 10 10 8 9 8 8 6 7 8 8 8 8 8 8 8 7 7 8 8 6 5 7 7 8 8 7 8 7 7 7 8 8 7 6 6 5 6 5 5 5 5 5 5 6 6 7
15 15 15 14 14 12 14 15 14 14 12 12 11 11 11 10 9 7 8 7 7 7 6 7 8 8 8 8 8 8 9 9 9 8 9 9 9 9 9 10 9 8 8 8 7 7 7 8 8 8 8 8 8 7 6 7 6 7 7 6 6 7 8 8 8 7 7 6 7 8 7 6 4 5 4 4 4 5 5 5 5 5 5 6 6
14 13 14 14 14 12 13 14 13 13 12 12 11 11 10 9 8 8 8 8 7 6 7 8 8 9 8 9 9 8 9 9 9 8 9 9 9 9 9 10 9 8 9 7 7 7 7 8 8 8 8 7 7 7 7 6 6 6 7 7 6 7 7 7 6 6 6 6 7 7 6 5 4 4 4 4 4 5 5 5 5 5 5 5 5
13 13 14 14 14 14 14 13 13 13 12 11 12 11 10 9 7 7 7 7 7 7 8 8 8 9 8 9 8 8 9 9 8 8 9 9 9 9 9 10 9 9 8 8 7 6 7 8 8 7 7 7 6 6 7 6 5 5 6 6 6 6 6 6 6 5 6 5 6 6 5 4 4 4 4 5 5 5 5 5 5 5 5 5 5
15 15 14 15 15 13 13 12 11 12 12 11 11 11 9 8 8 7 9 8 8 7 7 8 8 9 8 9 8 8 8 8 8 9 9 9 10 10 10 9 10 10 8 7 7 6 7 8 7 7 7 6 6 6 6 5 5 5 6 6 5 5 5 6 5 5 4 4 4 4 3 3 4 4 5 5 5 5 5 5 6 6 6 5 6
18 18 15 14 14 15 15 14 12 12 12 11 11 10 10 9 8 7 8 8 8 8 8 8 8 8 8 7 8 8 8 8 8 8 8 9 10 10 10 10 9 9 9 8 7 8 6 7 7 7 7 6 6 6 6 6 5 5 5 6 6 5 5 5 4 5 4 4 3 2 2 2 3 3 4 4 5 5 5 6 6 6 6 6 6
13 15 17 17 15 14 15 15 14 12 12 11 10 11 10 10 9 8 8 7 7 9 8 8 7 7 7 7 7 7 7 8 7 8 8 9 9 10 9 9 8 9 8 8 8 8 6 7 7 7 5 5 6 6 5 5 4 4 4 4 4 5 5 5 5 4 3 3 3 3 2 2 1 2 3 4 4 6 6 6 6 5 6 6 6
17 17 17 17 16 15 15 15 15 15 14 13 12 11 10 8 7 7 8 8 8 9 9 8 8 8 7 6 7 6 7 7 8 8 9 9 10 10 9 9 8 8 7 7 6 7 8 8 7 7 6 6 7 5 4 3 3 4 4 4 4 5 6 5 4 4 3 3 3 3 3 4 6 8 6 5 6 4 3 6 7 5 6 6 6
17 17 16 16 16 15 15 15 15 16 15 14 12 12 11 10 8 8 8 7 9 9 10 9 8 7 6 7 7 7 8 8 8 9 9 10 10 10 9 9 8 8 7 7 7 7 7 7 7 7 7 7 5 3 5 6 4 2 3 4 4 4 5 4 4 4 4 4 4 4 4 11 10 9 9 10 11 10 8 4 5 5 5 6 6
17 16 15 16 17 17 16 16 16 15 16 14 13 12 11 10 9 9 9 8 9 9 9 9 8 7 7 8 8 8 8 9 8 9 10 11 10 9 9 9 8 7 7 6 7 8 7 6 7 7 7 6 5 3 6 3 2 4 4 4 5 4 4 4 3 3 3 4 4 4 4 6 7 8 8 12 13 12 12 13 12 10 8 5 5
17 17 16 16 18 19 19 19 18 17 16 14 14 13 13 12 10 10 9 8 9 9 9 9 8 7 7 9 8 9 9 9 9 10 10 10 10 10 10 9 8 8 6 6 8 7 6 6 6 7 7 5 4 5 3 1 5 7 7 5 4 4 3 3 2 2 1 3 4 5 4 4 5 6 6 7 10 12 13 13 14 13 13 14 11
18 19 20 20 19 18 18 18 18 18 16 16 17 15 14 13 13 10 9 9 10 10 9 9 8 8 8 8 8 9 9 9 9 9 9 9 10 10 10 9 8 6 6 7 6 7 6 6 7 7 6 4 3 6 6 7 7 8 9 7 4 4 4 3 2 1 1 2 4 5 6 6 5 10 7 6 6 8 11 13 13 13 13 14 14
16 17 17 15 13 13 14 15 13 12 13 14 14 15 13 11 11 11 11 10 11 10 10 9 9 8 8 8 8 9 9 9 9 9 9 10 10 10 8 7 7 6 7 6 6 7 6 6 6 7 5 5 5 7 8 11 11 11 11 8 3 3 3 3 2 1 0 1 3 4 5 6 6 5 5 8 7 7 7 7 8 8 8 11 13
15 14 14 15 17 15 12 10 11 13 12 13 12 13 13 13 12 11 10 11 11 11 10 10 9 8 8 8 9 9 9 9 9 9 9 10 10 9 9 7 7 7 7 7 7 6 5 5 5 6 7 6 4 7 10 13 14 14 13 8 3 3 1 1 1 2 1 2 4 4 4 5 6 7 6 8 7 7 6 7 8 8 8 8 8
19 21 19 19 17 17 16 14 11 12 12 12 12 11 12 11 11 11 10 10 10 10 10 9 9 8 8 8 9 9 9 9 9 9 9 9 9 9 9 7 7 6 5 5 5 6 6 6 5 7 8 6 4 8 11 12 13 13 11 6 4 3 1 1 3 3 3 3 4 4 4 6 6 6 10 13 10 6 5 7 8 8 8 8 8
19 19 18 14 11 12 14 13 12 13 14 12 12 11 12 12 12 12 12 12 11 10 9 9 8 8 8 8 9 10 10 9 9 9 9 9 9 9 8 7 8 7 7 6 5 5 5 6 6 6 8 5 5 7 10 11 10 11 9 6 4 4 3 2 3 4 4 4 4 4 4 5 6 7 11 12 12 8 6 7 7 8 7 7 9
11 10 11 13 13 12 10 12 14 14 13 13 13 13 13 13 12 11 11 12 12 11 9 10 9 8 8 9 10 10 10 10 9 10 9 8 7 7 8 8 9 7 7 6 5 5 4 5 6 5 6 7 5 6 10 10 10 10 8 6 4 5 3 3 3 4 4 4 5 10 8 4 6 7 11 12 11 7 6 6 6 7 9 9 10
13 15 14 13 13 14 13 11 12 13 12 12 13 15 14 14 12 12 11 11 11 14 14 12 9 8 8 9 10 10 10 10 10 9 9 9 9 9 7 7 7 7 7 6 5 6 4 4 5 5 8 7 5 5 9 9 9 8 6 4 5 5 5 4 4 5 4 4 6 6 9 9 7 8 12 12 11 7 5 5 5 6 8 9 10
11 11 15 15 12 12 12 14 14 13 12 14 14 14 13 13 12 11 12 12 12 12 11 12 10 7 8 9 9 10 9 10 10 9 8 8 7 8 8 8 7 7 7 6 5 6 6 4 4 5 5 5 6 5 5 8 8 8 7 4 4 6 3 2 3 3 6 6 5 6 7 10 12 12 11 12 12 10 5 5 5 6 7 10 9
13 12 12 13 15 16 16 15 13 14 14 14 14 14 13 12 12 12 12 12 11 10 11 11 12 11 9 9 9 9 10 9 9 9 9 7 7 8 7 8 7 7 6 6 5 5 5 4 4 4 4 4 4 5 5 9 8 8 7 7 4 3 1 0 1 2 3 4 6 6 6 9 12 11 10 11 11 12 9 5 6 6 4 7 8
12 14 13 12 12 13 13 13 13 15 15 15 15 14 13 13 12 13 11 10 10 10 10 11 10 13 11 10 9 8 9 9 8 9 9 8 6 7 8 8 7 7 7 6 5 4 5 4 3 3 4 4 4 7 5 8 8 8 7 7 6 2 1 1 2 3 4 4 5 4 5 8 11 11 10 10 11 11 11 6 9 11 13 14 9
15 14 14 15 12 13 14 13 13 14 13 13 15 15 13 12 13 11 10 10 10 9 10 11 11 12 11 10 9 10 9 7 8 9 9 9 8 8 8 8 8 7 7 6 5 4 5 4 4 4 4 4 3 4 7 5 7 8 7 7 5 3 2 1 2 2 3 4 4 4 5 10 10 10 10 10 10 11 8 7 12 13 13 14 10
14 15 14 15 14 13 12 12 13 14 13 13 15 15 13 13 13 11 10 10 10 10 10 10 10 11 11 10 9 9 8 7 8 8 9 10 9 8 8 8 8 7 7 7 6 6 5 5 5 4 2 2 1 2 4 5 5 7 7 6 5 4 4 1 0 1 2 3 5 5 6 10 9 9 10 10 10 10 7 10 12 13 12 10 7
17 16 15 14 15 15 13 13 12 14 13 14 14 16 15 14 11 11 12 12 12 11 11 11 11 11 11 9 8 8 8 7 7 9 9 9 9 9 8 7 7 7 7 7 6 6 7 6 6 6 5 1 0 1 2 3 5 6 6 5 5 5 4 2 1 2 1 2 5 7 7 9 8 8 9 9 8 10 11 10 11 12 10 7 7
14 14 15 14 14 15 16 15 12 13 13 12 12 15 17 13 12 12 12 12 12 12 11 11 11 10 11 10 9 7 7 7 7 7 8 8 10 9 8 8 7 7 7 7 7 7 6 6 6 6 5 3 1 1 1 1 2 3 3 4 4 4 5 4 2 2 7 8 10 10 9 8 7 6 5 4 5 6 10 11 11 10 6 7 6
18 18 17 15 17 16 17 17 16 12 12 11 12 11 12 12 13 12 12 12 12 12 11 11 11 10 10 10 10 8 7 7 6 6 7 8 8 7 8 8 7 7 7 7 8 7 7 6 6 6 4 3 3 1 1 1 1 1 1 2 3 3 5 6 7 7 8 8 7 7 5 5 4 6 7 4 5 6 7 7 7 7 6 6 6
14 16 17 16 17 17 17 16 15 13 12 12 12 12 13 13 13 13 12 13 12 12 12 11 12 10 9 9 9 11 10 7 7 7 8 7 6 6 8 8 8 7 7 7 7 8 8 7 7 6 5 3 3 1 1 1 1 0 1 1 1 2 4 4 5 5 5 5 4 6 5 5 6 7 6 6 6 6 5 4 6 6 7 6 7
16 16 16 17 16 17 18 17 15 12 12 12 13 12 14 15 14 13 14 14 12 12 11 11 10 9 9 8 8 8 7 7 6 5 3 3 6 6 6 2 2 4 7 8 7 8 8 8 9 8 7 5 4 4 4 5 2 4 1 1 2 3 2 2 3 5 4 3 4 6 6 6 6 4 6 6 6 6 6 6 5 6 6 6 7
12 12 13 14 15 16 17 16 13 12 12 12 13 13 13 14 13 13 13 14 13 12 11 11 10 9 9 8 7 7 7 7 7 7 6 5 8 7 1 6 4 2 6 11 14 9 9 8 8 7 6 7 7 7 6 7 5 5 5 4 4 4 4 3 4 4 1 1 1 2 3 2 3 4 5 5 6 6 6 7 6 6 6 6 7
12 12 13 14 15 15 16 15 13 12 13 13 13 13 13 13 13 12 13 13 13 11 10 10 10 9 10 9 8 7 7 7 7 7 7 7 5 6 10 7 4 9 9 8 9 14 14 11 11 7 4 6 6 7 8 7 6 5 5 4 4 5 5 4 4 1 2 2 1 3 4 2 3 2 3 3 3 4 4 6 6 6 5 6 6
Wind_Direction
156 151 150 148 149 157 156 154 156 154 164 151 142 140 136 138 137 138 142 144 143 142 140 143 137 121 100 110 113 116 116 106 90 86 87 92 82 73 73 59 46 47 61 63 59 65 64 58 54 47 52 61 62 61 56 49 41 41 30 30 29 23 21 10 359 343 7 342 315 308 317 320 330 16 33 8 355 336 323 320 312 323 314 308 291
141 140 143 142 145 144 149 156 168 159 168 155 149 146 142 141 138 138 142 145 147 148 144 143 148 152 142 135 123 123 124 119 114 103 98 78 69 65 67 75 65 64 65 68 65 58 58 56 51 48 51 60 68 61 53 48 40 34 22 30 26 41 38 11 1 355 19 338 325 329 324 327 326 12 20 355 350 336 344 346 351 347 343 331 317
148 140 141 145 145 144 154 167 178 171 158 154 148 143 143 137 136 139 143 143 147 143 136 135 124 120 118 124 131 111 62 103 115 109 95 88 73 73 75 73 74 64 59 59 60 52 56 60 55 54 52 55 59 52 47 45 38 36 30 35 9 30 50 23 12 19 4 315 280 25 347 349 339 357 5 346 343 331 354 2 11 14 359 354 344
156 155 155 157 151 145 154 165 175 159 158 149 152 149 142 136 137 137 135 134 138 136 123 117 112 96 92 110 103 103 133 108 88 80 81 83 75 74 67 71 69 65 58 62 62 55 53 60 60 58 56 53 63 61 49 46 35 33 33 36 39 42 21 16 15 10 21 360 9 347 274 302 314 20 335 309 357 346 14 2 19 7 1 353 359
155 156 155 155 150 150 150 160 165 165 167 165 162 152 136 134 132 129 129 131 131 128 124 121 108 99 99 91 96 93 78 89 99 86 87 93 84 65 64 65 67 66 61 61 63 59 54 55 59 59 56 49 54 57 52 45 44 44 42 49 42 55 44 14 10 13 24 16 21 358 348 6 3 317 323 282 12 348 352 18 12 15 360 347 357
159 158 157 153 150 146 151 161 168 167 171 171 153 127 127 127 120 116 116 122 130 131 131 126 128 130 129 129 131 130 129 130 128 129 115 93 89 94 74 70 73 69 61 59 58 59 56 53 55 57 55 51 53 58 55 52 45 46 39 54 49 35 78 45 19 5 28 24 28 33 24 352 330 317 6 313 341 252 49 29 15 18 358 341 0
153 151 155 155 157 156 156 165 167 161 163 151 132 126 132 125 121 126 132 135 134 133 127 124 121 135 139 140 140 140 134 123 115 113 110 101 93 78 76 67 64 68 60 60 58 57 58 54 56 59 60 59 56 57 56 55 54 50 45 53 51 49 51 63 40 360 359 25 17 17 21 5 356 14 358 318 327 357 32 16 3 11 352 345 6
157 157 159 160 160 160 157 159 158 159 155 150 136 137 138 132 132 135 130 130 129 129 119 124 134 136 128 125 128 134 130 128 125 113 106 108 94 89 81 70 66 69 68 58 54 59 61 58 59 60 61 57 60 60 62 61 61 50 52 55 56 53 59 69 59 31 52 0 359 17 12 5 13 37 26 342 305 317 313 331 233 1 344 12 2
160 156 159 157 155 153 151 151 151 153 154 149 150 143 134 131 128 127 123 122 122 120 118 118 123 134 133 130 120 119 124 127 122 117 113 107 98 91 86 85 76 66 62 65 61 59 64 66 62 62 61 57 59 62 62 63 62 57 45 44 49 52 59 73 74 53 53 40 8 12 7 7 351 16 14 9 349 322 311 339 332 338 359 44 353
159 157 154 156 157 153 145 137 146 151 141 137 140 135 132 127 128 129 122 125 129 120 114 115 124 131 134 137 130 129 125 120 119 118 112 107 101 97 93 85 80 71 62 64 65 66 67 64 60 59 58 59 61 63 67 63 57 54 48 48 41 54 43 60 71 62 49 36 43 26 32 4 25 25 25 15 352 9 332 325 340 340 334 337 0
162 163 157 153 151 143 140 148 147 137 137 137 140 140 130 127 131 131 130 123 120 121 120 121 126 140 140 141 137 136 136 134 126 118 118 109 105 100 95 91 82 82 77 66 69 64 59 54 55 57 57 57 56 60 62 64 56 52 45 45 46 45 34 43 41 38 40 41 39 38 36 33 29 27 22 15 11 349 335 326 331 337 323 317 345
160 159 152 149 144 144 149 151 147 140 137 136 136 136 132 132 134 128 127 124 122 122 121 122 130 137 137 139 137 139 141 138 132 132 128 119 116 111 107 93 82 78 71 68 57 53 57 54 55 57 57 57 61 66 65 61 54 47 45 48 43 39 38 42 43 48 50 52 47 43 45 40 35 30 22 20 22 355 352 334 335 331 312 308 321
160 158 156 156 157 155 154 149 144 144 143 140 138 137 135 135 136 131 131 132 123 119 118 120 125 132 135 131 129 132 131 129 125 120 125 123 122 114 105 97 94 78 69 72 57 60 64 62 58 60 62 65 70 67 62 59 54 51 50 49 50 51 52 57 59 55 54 54 52 44 42 40 37 27 24 32 24 12 9 342 332 330 312 313 325
161 159 162 162 161 158 151 150 150 143 141 141 139 140 141 141 139 129 127 124 117 111 114 111 110 114 116 120 124 127 122 115 115 119 119 115 114 107 105 105 93 90 87 85 87 73 65 66 69 71 73 74 74 72 65 58 54 54 49 50 50 49 54 55 57 58 54 52 49 49 41 36 35 25 27 32 27 18 9 355 331 327 313 309 316
158 161 166 165 161 155 152 152 150 145 143 142 143 142 143 139 134 125 122 123 119 116 110 108 106 104 103 107 114 117 115 112 113 116 118 114 108 104 101 96 96 100 98 102 83 70 71 72 74 74 73 74 71 67 59 51 46 42 41 45 50 49 53 56 56 57 55 51 48 45 41 38 27 22 27 31 24 25 3 350 350 344 333 322 324
159 160 162 160 156 151 146 146 146 145 144 144 145 143 138 133 132 126 124 124 119 115 112 113 110 109 108 108 109 109 109 109 108 108 109 109 109 107 103 98 103 103 89 78 73 86 79 73 67 64 59 55 55 59 53 45 42 58 60 60 59 54 58 59 63 62 58 54 50 43 46 42 30 22 26 26 21 19 3 359 359 357 346 330 335
160 162 158 155 153 147 144 143 145 146 146 149 145 139 136 133 130 122 115 112 115 119 120 117 117 112 108 108 111 112 116 118 120 120 116 110 108 107 106 106 103 89 85 86 85 78 77 72 67 62 59 54 47 43 47 55 62 64 65 64 63 59 64 62 62 63 58 55 48 43 45 42 34 22 22 24 19 15 7 4 7 4 352 342 339
157 153 150 151 149 144 141 143 147 146 141 139 136 134 132 130 130 122 119 119 117 117 116 120 119 114 113 109 106 111 116 118 119 118 115 106 99 97 97 95 86 87 87 86 81 74 68 67 67 62 57 53 50 51 56 62 69 67 68 68 70 71 67 62 60 60 55 51 47 39 29 37 32 18 22 16 17 15 8 10 15 8 10 357 342
153 149 147 149 148 145 146 144 142 135 133 133 129 127 122 119 120 118 119 118 119 114 111 107 111 116 117 117 118 115 114 111 108 107 105 103 102 97 89 92 92 88 84 81 78 73 72 66 65 60 54 51 48 50 59 65 70 73 69 68 61 66 67 63 56 59 53 49 45 42 33 32 25 15 13 16 14 15 8 17 22 13 14 347 342
153 152 152 152 147 147 148 144 142 138 137 134 127 122 121 120 115 110 108 111 110 108 114 115 115 113 112 109 104 105 101 104 108 109 105 104 101 93 95 91 91 87 85 82 78 78 74 72 63 62 59 53 51 48 55 69 69 67 68 67 61 66 66 63 58 52 53 45 43 42 34 32 20 18 22 24 25 17 11 26 16 355 352 346 343
156 155 153 149 145 147 143 136 133 127 127 128 127 125 122 119 119 123 124 120 113 119 117 119 115 114 118 116 109 101 103 107 106 106 107 102 92 91 91 96 86 83 86 82 82 80 76 73 68 62 60 57 55 54 51 65 71 73 71 72 69 67 68 63 59 51 45 46 42 43 37 32 25 32 28 29 23 12 10 2 355 355 345 339 335
155 154 151 146 144 147 137 131 131 129 132 131 128 124 123 123 128 127 118 118 124 126 125 119 114 118 117 113 108 111 113 110 107 104 100 93 95 96 98 88 87 86 87 87 84 80 77 73 72 67 63 61 60 59 55 63 77 77 74 73 72 69 68 63 56 56 48 43 43 45 40 33 30 33 25 23 7 348 360 355 351 341 336 333 332
156 153 151 149 148 149 140 138 139 137 136 132 129 126 127 129 130 129 124 127 130 129 122 118 118 118 117 115 116 118 117 111 105 100 96 99 100 100 95 93 92 89 84 86 86 82 79 79 74 68 66 61 60 62 57 68 77 83 81 75 70 70 67 63 61 58 54 45 46 47 41 34 23 28 18 0 349 342 338 342 336 327 327 326 328
151 147 147 147 145 145 139 138 139 138 138 136 131 128 129 131 132 130 127 131 130 128 121 119 120 119 119 116 117 119 113 110 104 102 104 105 104 99 98 95 96 94 90 83 80 80 80 78 77 70 66 65 62 62 65 65 73 82 82 76 69 66 64 63 67 67 58 52 49 46 42 32 19 23 4 354 343 339 334 326 322 311 309 313 317
150 146 143 143 144 147 144 142 144 141 136 135 134 133 132 131 132 130 129 132 129 124 121 122 121 119 116 115 116 114 113 110 108 108 110 108 104 103 100 101 98 93 92 92 82 76 80 75 75 74 71 65 63 65 68 63 64 75 80 78 72 69 67 67 66 66 64 61 51 50 39 32 22 19 1 1 346 350 336 325 323 320 323 323 326
153 145 144 149 150 147 142 143 143 140 137 136 134 132 131 132 133 132 134 132 128 122 123 122 119 116 117 115 116 114 114 115 116 116 115 112 109 106 102 98 99 99 95 91 92 83 83 83 79 78 76 73 67 67 67 65 64 72 74 70 71 71 70 69 66 62 60 51 59 50 38 38 27 25 4 352 349 346 338 338 332 327 321 319 321
157 151 148 144 148 151 146 144 143 140 139 137 135 133 135 137 135 132 132 129 126 125 125 120 118 117 117 118 119 119 121 122 121 121 116 111 109 107 105 104 103 103 103 99 93 91 81 84 82 78 73 74 72 66 62 57 57 62 79 76 72 71 71 70 67 61 50 44 41 34 31 27 39 26 10 354 344 343 341 332 327 318 310 309 313
147 144 149 152 150 146 146 144 142 140 137 134 136 140 144 144 140 133 130 126 126 125 123 120 119 117 117 120 116 114 115 116 116 114 110 108 106 105 104 104 102 101 99 99 98 96 91 83 79 78 76 76 73 63 54 50 51 54 80 84 79 79 76 68 63 50 38 31 17 358 336 341 6 29 14 350 350 340 331 320 311 307 304 307 310
153 153 152 151 150 150 147 145 144 142 142 143 145 144 140 136 133 131 132 133 131 126 126 125 123 122 124 119 112 109 110 112 111 109 107 106 106 105 103 103 101 101 99 99 99 97 94 86 77 76 73 66 65 55 50 41 35 46 63 89 80 80 79 77 65 47 28 16 360 350 327 350 357 350 352 351 331 313 302 307 308 307 304 308 305
154 153 154 151 148 148 149 147 148 149 150 155 150 146 144 142 139 136 137 140 132 131 131 131 127 128 126 119 115 115 116 115 112 110 112 111 109 108 105 101 100 99 100 99 94 89 86 88 85 74 68 63 57 48 27 19 16 57 79 99 90 80 84 86 80 54 22 3 350 346 338 359 354 340 337 342 340 332 321 291 281 296 299 305 307
153 150 150 152 153 153 152 152 155 159 162 156 148 145 142 141 143 144 144 143 131 131 131 130 129 129 127 123 120 122 120 115 114 112 114 115 115 111 106 103 102 101 99 98 92 87 84 81 81 78 69 63 52 33 10 359 60 103 117 116 112 99 87 89 83 74 38 11 356 347 347 350 352 337 339 344 340 340 338 338 334 330 322 308 304
155 152 152 157 161 163 162 161 162 164 160 152 149 148 148 150 150 149 146 136 131 133 133 131 129 129 130 129 127 124 119 119 117 117 117 117 116 111 110 109 107 101 97 94 88 89 90 86 82 76 69 60 51 19 3 118 98 103 124 125 124 118 112 105 106 95 33 10 4 359 353 350 340 340 350 345 336 336 342 342 343 343 343 342 341
156 159 165 168 168 167 166 166 167 166 159 157 150 150 155 156 155 151 137 135 136 136 134 132 131 132 134 131 128 125 124 121 120 120 119 119 117 115 116 113 109 108 99 92 95 91 87 86 84 82 73 60 57 22 39 60 74 106 128 130 130 129 122 128 136 151 58 12 5 3 355 349 342 346 351 344 338 337 343 344 346 349 346 347 343
164 166 164 160 160 167 172 171 161 151 150 152 152 146 147 147 145 144 142 142 139 138 136 136 135 137 137 134 130 128 125 125 124 122 121 121 120 119 117 113 110 102 98 96 90 90 90 84 85 86 81 61 53 22 58 72 81 93 110 111 126 130 134 162 188 208 256 319 336 354 353 345 339 342 351 350 343 348 343 346 350 350 347 341 341
166 164 159 167 172 170 159 151 149 148 147 145 148 153 148 146 148 144 142 141 140 139 139 139 140 141 139 136 133 129 128 129 126 124 120 119 120 119 117 118 115 114 110 108 106 98 92 92 90 89 79 62 40 33 67 72 78 85 89 97 91 82 81 214 243 245 250 281 321 328 338 340 337 338 360 356 352 344 345 354 352 351 344 340 337
176 172 174 173 174 168 160 152 143 143 149 151 150 147 143 142 141 139 138 139 139 140 141 138 139 144 143 141 136 134 133 131 128 125 121 121 122 125 124 122 112 107 103 100 92 98 102 99 94 90 84 69 43 45 68 73 80 85 86 83 83 77 53 329 302 288 291 295 312 326 344 347 339 338 356 354 357 350 4 2 355 347 345 341 342
178 171 166 164 152 151 157 149 145 148 148 151 147 142 136 137 141 148 149 145 142 140 141 139 137 145 146 143 139 138 137 135 132 128 127 126 124 121 119 121 118 122 120 115 118 112 112 106 97 91 93 83 60 46 64 71 79 94 92 84 84 73 43 6 323 309 314 319 328 337 350 350 348 347 348 357 356 5 10 4 355 350 344 346 345
155 147 146 151 158 155 148 146 145 150 151 146 145 139 138 142 147 147 144 145 142 139 135 138 153 156 150 146 145 143 142 140 136 136 134 129 122 120 125 129 129 132 126 131 127 113 106 109 107 102 103 95 77 55 65 65 68 73 87 93 90 87 56 23 343 324 313 319 333 347 357 7 356 345 345 3 2 9 15 359 359 354 357 354 344
158 154 152 156 157 153 145 139 142 146 148 142 140 140 143 149 150 151 150 150 152 151 152 148 154 149 148 146 146 143 142 140 137 139 138 136 135 134 133 125 127 126 132 135 131 122 118 107 110 110 95 91 80 58 59 63 65 70 84 87 90 81 57 13 353 339 332 341 338 337 346 359 360 348 353 3 10 14 16 6 354 4 0 356 341
154 156 154 150 145 140 147 150 151 150 148 144 144 147 149 149 150 149 152 154 161 158 147 139 137 144 145 144 143 142 142 142 141 139 138 137 133 128 132 130 130 130 134 136 133 133 129 130 117 98 94 93 84 59 55 68 71 69 82 91 79 76 54 3 339 347 346 339 344 343 345 348 352 352 357 4 14 19 18 8 10 15 2 351 329
152 151 147 149 154 157 157 158 152 149 151 150 150 148 150 151 152 156 161 161 154 144 145 145 143 139 143 146 144 145 144 145 145 143 140 135 136 136 136 132 135 132 130 133 135 138 130 131 122 115 109 96 94 84 61 69 66 63 64 81 78 97 149 242 348 356 344 335 339 339 326 338 345 348 359 8 14 15 17 17 17 8 345 326 340
146 146 150 152 154 155 154 152 153 155 155 155 153 153 152 154 159 166 162 147 141 142 142 143 150 142 146 146 146 145 144 145 145 138 137 139 140 138 139 140 138 141 143 144 142 132 124 113 99 106 107 98 90 95 84 64 70 67 63 63 72 38 221 189 23 359 347 348 336 319 316 326 338 347 4 13 14 16 16 23 2 359 358 0 357
153 158 159 152 153 156 155 152 154 154 155 156 154 152 155 157 164 160 148 145 140 143 143 145 146 142 143 147 147 147 146 147 148 147 144 146 150 147 148 146 147 148 146 146 144 137 121 115 100 85 83 83 78 86 96 89 74 76 68 65 76 78 15 137 101 12 330 313 311 318 315 329 332 342 9 14 20 18 20 7 4 4 2 359 359
158 155 155 155 150 151 151 154 157 157 157 157 156 157 159 162 161 148 145 140 140 144 144 144 144 142 142 147 149 148 146 147 149 144 143 148 155 156 154 157 157 153 153 149 151 141 132 132 136 126 100 86 55 84 83 87 80 66 59 59 58 50 45 359 149 1 326 309 327 330 317 314 326 348 11 15 16 25 14 8 6 3 2 3 3
161 162 157 156 154 151 150 154 161 159 158 160 162 159 159 158 153 148 150 146 146 148 147 145 145 144 145 148 145 146 147 148 148 145 146 153 156 157 158 169 159 159 157 156 161 157 155 156 147 152 168 182 34 29 69 60 65 61 47 33 21 21 17 16 25 343 349 324 301 312 337 343 339 355 16 16 13 10 9 8 8 5 7 7 4
152 154 160 155 151 151 154 157 161 162 159 161 162 159 159 156 149 151 148 146 146 147 146 147 146 145 148 149 146 149 148 146 146 150 151 156 158 161 163 168 165 168 167 159 164 166 162 161 161 170 178 190 234 262 68 23 34 36 18 12 358 355 4 358 324 336 340 351 0 351 345 347 355 8 21 19 11 0 359 7 6 10 7 5 2
167 162 156 155 156 158 161 160 159 164 161 160 155 155 145 142 151 151 148 147 147 146 145 146 148 148 150 151 152 154 152 148 147 149 151 158 158 164 163 168 173 173 172 164 163 166 165 162 167 168 173 178 222 185 76 4 343 359 4 354 345 349 355 8 17 358 359 351 337 342 322 307 324 20 39 28 19 2 7 4 3 1 2 359 359
162 160 161 157 161 161 161 161 161 163 161 156 152 148 149 150 151 153 150 148 149 150 150 153 152 152 154 157 155 156 153 152 158 154 151 152 159 160 168 173 181 174 162 164 159 166 163 163 160 160 161 185 197 208 226 204 209 264 320 340 337 15 22 15 345 342 337 329 323 322 353 17 14 16 8 10 5 6 8 4 3 358 353 351 355
163 168 166 164 163 162 162 163 163 162 156 152 150 150 154 155 156 155 153 151 152 151 149 149 151 150 155 156 155 158 156 146 133 109 90 118 154 165 160 182 260 191 167 157 169 164 167 164 156 160 159 173 203 206 224 194 190 184 194 315 351 335 330 311 299 307 326 342 2 14 11 4 16 9 8 3 358 3 1 360 3 2 355 353 359
163 160 162 160 163 162 163 164 161 156 153 151 153 155 158 159 156 156 154 152 151 150 149 153 155 156 155 152 151 147 141 137 134 131 117 71 31 45 341 175 167 210 210 171 151 162 171 157 157 179 167 159 185 208 199 174 197 216 227 233 249 261 258 256 271 304 150 33 16 3 340 354 359 17 16 3 354 357 4 0 355 356 359 360 357
161 163 166 165 165 164 165 163 160 156 155 155 156 158 161 162 159 158 156 152 151 152 155 156 158 161 161 155 147 142 142 135 137 133 125 116 90 42 34 30 123 149 150 146 129 135 149 160 153 172 230 235 182 159 163 183 205 219 228 236 259 263 269 252 226 113 41 54 32 4 321 343 353 21 27 347 338 356 358 2 351 345 354 357 349